Location: Unspecified
(0.0000°N, 0.0000°E)
Time: 11:23:06
(UTC+00:00)

Courier 1B Rocket - Pass Details

Date: 23 November 2019
Orbit: 920 x 1202 km, 28.2° (Epoch: 07 December)

Event Time Altitude Azimuth Distance (km) Brightness Sun altitude
Rises 06:31:07 0° 212° (SSW) 3,649 7.9 10.5°
Reaches altitude 10° 06:35:14 10° 188° (S) 2,656 7.5 11.5°
Maximum altitude 06:38:30 14° 157° (SSE) 2,333 7.8 12.2°
Drops below altitude 10° 06:41:42 10° 126° (SE) 2,612 9.2 13.0°
Sets 06:45:40 0° 101° (ESE) 3,546 9.8 13.9°
